Weather in Kumukh

Russia / Republic of Dagestan     42°10′13″N   47°07′00″E
temp.,
°C
wind,
m/s
gust,
m/s
humid.,
%
clouds,
%
prec.,
mm/h
press.,
hPa
HPBL,
m
11 april, sun
sun1100:00+8ssw3464100 0.0 101672
03:00+7ssw335932 0.0 101634
06:00+7ssw335497 0.0 101738
09:00+13ene233695 0.0 1014961
12:00+16ene3532100 0.0 10112221
15:00+15nw1240100 0.1 10111743
18:00+10wsw3267100 0.8 1014622
21:00+8e007540 1.3 101413
12 april, mon
mon1200:00+7ssw2266100 0.0 101418
03:00+7sw226588 0.0 101414
06:00+6sw2262100 0.0 101523
09:00+11ne3251100 0.0 1015773
12:00+14nne554547 0.6 10121557
15:00+11nne5463100 5.3 1014659
18:00+7nne438364 2.7 1018547
21:00+6ne118282 2.8 1019369
13 april, tue
tue1300:00+5ese119111 0.0 101917
03:00+4ese11745 0.0 101810
06:00+4ese1169100 0.0 101918
09:00+9ne32582 0.0 1018590
12:00+12ne435356 0.4 10161208
15:00+12ne43556 3.4 1014593
18:00+9ne337526 1.5 1016424
21:00+5e11899 1.9 101831
14 april, wed
wed1400:00+5se118713 0.0 101616
03:00+5ssw117267 0.0 101412
06:00+5sw1160100 0.0 101311
09:00+4e2279100 0.9 1014426
12:00+5nne3477100 1.8 1012776
15:00+2n2299100 12.3 1015187
18:00+2nne119790 1.7 1017183
21:00−1sw228217 1.7 102042
15 april, thu
thu1500:000sw227749 0.0 101846
03:00−1sw2278100 0.0 101915
06:00+1ssw3372100 0.0 101737
09:00+6nne11584 0.0 1014474
12:00+9wsw23415 0.0 10121878
15:00+10w344255 0.0 10111809
18:00+8nw22595 0.0 101233
21:00+4sw33685 0.0 101640